Regional Weather Roundup
Issued by NWS Goodland, KS

Home | Current Version | Previous Version | Graphics & Text | Print | Product List | Glossary On
Versions: 1 2 3 4 5 6 7 8 9 10 11 12 13 14 15 16 17 18 19 20 21 22 23 24 25 26 27 28 29 30 31 32 33 34 35 36 37 38 39 40 41 42 43 44 45 46 47 48 49 50
000
ASUS43 KGLD 280359
RWRGLD

GOODLAND FORECAST AREA HOURLY WEATHER ROUNDUP
NATIONAL WEATHER SERVICE GOODLAND KS
900 PM MST MON FEB 27 2017

...OFFICIAL OBSERVATIONS...

CITY           SKY/WX    TMP DP  RH WIND       PRES   REMARKS
GOODLAND KS    CLOUDY    50  16  25 SW22G32   29.59R
HILL CITY KS   CLOUDY    43  25  49 S6        29.62R
IMPERIAL NEB   CLOUDY    43  17  35 S12       29.52F
MCCOOK NEB     CLOUDY    47  17  30 S15       29.56S
AKRON CO       CLOUDY    30  21  69 NW18      29.64R WCI  18
BURLINGTON CO  CLOUDY    48  16  27 SW22G31   29.62R
LIMON CO       CLOUDY   N/A N/A N/A W13       29.62F
$$

...UNOFFICIAL OBSERVATIONS...

CITY           SKY/WX    TMP DP  RH WIND       PRES   REMARKS
LENORA KS        N/A     47  32  56 SE10        N/A
NORTON KS      CLEAR     45  12  26 SE7       29.58S
TRENTON NEB      N/A     40  32  73 S5          N/A
KIT CARSON CO    N/A     45  17  32 MISG        N/A
YUMA CO        FAIR      34  23  64 NW15G21   29.62R
$$




USA.gov is the U.S. government's official web portal to all federal, state and local government web resources and services.